Regional Weather Roundup
Issued by NWS Grand Forks, ND

Home | Current Version | Previous Version | Text Only | Print | Product List | Glossary Off
Versions: 1 2 3 4 5 6 7 8 9 10 11 12 13 14 15 16 17 18 19 20 21 22 23 24 25 26 27 28 29 30 31 32 33 34 35 36 37 38 39 40 41 42 43 44 45 46 47 48 49 50

000
ASUS43 KFGF 232131
RWRFGF
PRAIRIE TO PINES  WEATHER ROUNDUP
NATIONAL WEATHER SERVICE EASTERN NORTH DAKOTA/GRAND FORKS ND
300 PM CST TUE JAN 23 2018

 **SATELLITE DATA USED TO AUGMENT SKY COVER AT AUTOMATED STATIONS**
 *****  WEATHER ACROSS EASTERN NORTH DAKOTA  *****

CITY           SKY/WX    TMP DP  RH WIND       PRES   REMARKS
GRAND FORKS    CLOUDY    23  20  88 S6        30.08R WCI  16
GRAND FRKS AFB CLOUDY    23  20  87 SW5       30.07S WCI  17
DEVILS LAKE    FLURRIES  19  18  93 NW16      30.07R WCI   5
FARGO          CLOUDY    23  19  85 SW9       30.10R WCI  13
WAHPETON ARPT  CLOUDY    23  19  86 W7        30.12R WCI  15
$$

 ***** WEATHER ACROSS CENTRAL AND WESTERN NORTH DAKOTA  *****

CITY           SKY/WX    TMP DP  RH WIND       PRES   REMARKS
BISMARCK       FAIR      34  25  69 NW9       30.10S
MINOT          CLOUDY    22  18  85 W8        30.09S WCI  12
JAMESTOWN      PTSUNNY   30  23  75 NW14      30.05R WCI  19
MINOT AFB      CLOUDY    20  18  91 NW10      30.08S WCI   9
GARRISON         N/A     23  17  78 N10       30.09R WCI  12
WILLISTON      FAIR      29  19  66 W13       30.10S WCI  19
DICKINSON      FAIR      35  22  58 W16       30.06S
HETTINGER      FAIR      36  22  56 W17       30.10S
$$

 *****  OTHER AIRPORT OBSERVATIONS IN OUR AREA  *****

CITY           SKY/WX    TMP DP  RH WIND       PRES   REMARKS
WALHALLA       FAIR      21  21 100 NW10G16   30.07R WCI  10
GRAFTON AIRPOR CLOUDY    23  21  93 SW5       30.10S WCI  17
VALLEY CITY AR FAIR      25  25 100 W8        30.07R WCI  16
CANDO          CLOUDY    21  21 100 NW9       30.08S WCI  11
CAVALIER APRT    N/A     23  23 100 S6        30.07R WCI  16
GWINNER          N/A     25  21  86 W5        30.08R WCI  19
SHEYENNE NWR     N/A     23  22  94 SW7       29.95S WCI  15
ROLLA          CLOUDY    21  21 100 NW20G28   30.05R WCI   6
 ***** THE ABOVE OBSERVATIONS ARE NON NWS ARE NOT QUALITY
       CONTROLLED AND MAY MIS-REPORT RAIN FOR SNOW...
$$

  *****  WEATHER ACROSS NORTHERN MINNESOTA  *****

CITY           SKY/WX    TMP DP  RH WIND       PRES   REMARKS
FLAG ISLAND    FAIR      14   1  57 CALM      30.09S
WARROAD        FAIR      16   9  73 E3        30.09R
ROSEAU         CLOUDY    21  16  79 SW6       30.08S WCI  14
HALLOCK        CLOUDY    19  18  93 S10       30.09R WCI   8
THF RVR FALLS  CLOUDY    18  15  88 S7        30.09R WCI   9
BAUDETTE       FAIR      18   3  52 E3        30.06S
WASKISH        PTSUNNY   16   7  67 CALM      30.07S
CROOKSTON      FAIR      21  18  86 S10       30.11R WCI  10
STEPHEN NDAWN    N/A     19  18  93 S7          N/A  WCI  10
GREENBUSH NDAW   N/A     18  16  93 S6          N/A  WCI   9
$$
  *****  WEATHER ACROSS CENTRAL AND WEST MINNESOTA  *****

CITY           SKY/WX    TMP DP  RH WIND       PRES   REMARKS
FOSSTON        CLOUDY    19  14  79 SW7       30.08R WCI  10
BEMIDJI        FAIR      22  11  64 E5        30.05S WCI  15
PARK RAPIDS    FAIR      24  13  62 CALM      30.05R
ELBOW LAKE     CLOUDY    22  18  83 W6        30.11R WCI  15
WADENA         FAIR      21  16  79 W6        30.08R WCI  14
DETROIT LAKES  CLOUDY    21  18  86 S5        30.08R WCI  15
MOORHEAD       CLOUDY    21  18  86 SW5       30.11R WCI  15
FERGUS FALLS   CLOUDY    21  18  86 CALM      30.10S
MORRIS MN      CLOUDY    27  18  69 W5        30.10R WCI  21
STAPLES        FAIR      23  12  63 W5        30.08R WCI  17
$$
  *****  WEATHER ELSEWHERE ACROSS MINNESOTA  *****

CITY           SKY/WX    TMP DP  RH WIND       PRES   REMARKS
DULUTH         FAIR      23   7  50 NW9       30.03R WCI  13
INTRNTL FALLS  FAIR      16   0  49 NE3       30.09R
ELY            NOT AVBL
CLOQUET        FAIR      21   5  49 NW8       30.05R WCI  12
WHEATON        CLOUDY    23  18  80 CALM      30.13S
BRAINERD       FAIR      27   9  46 N5        30.07R WCI  22
HIBBING        FAIR      20   4  50 N7        30.05R WCI  11
ALEXANDRIA       N/A    N/A N/A N/A MISG      30.08R
SAINT CLOUD    FAIR      28  12  51 NW5       30.08R WCI  23
MINNEAPOLIS    FAIR      27  16  63 NW10      30.08R WCI  17
$$

  *****  WEATHER ACROSS SOUTH DAKOTA  *****

CITY           SKY/WX    TMP DP  RH WIND       PRES   REMARKS
SIOUX FALLS    CLOUDY    24  22  91 W5        30.11S WCI  18
BROOKINGS      CLOUDY    22  20  92 W10       30.08S WCI  11
WATERTOWN      CLOUDY    22  21  96 W10       30.06R FOG     WCI  11
HURON          FAIR      25  22  88 CALM      30.11R
SISSETON         N/A     24  20  84 W7        30.09R WCI  16
ABERDEEN       FAIR      32  22  66 SW3       30.09S
MITCHELL       FAIR      29  24  82 W5        30.12R WCI  24
PIERRE         FAIR      43  25  49 NW18      30.09S
MOBRIDGE       FAIR      39  26  59 NW17      30.06S
RAPID CITY     FAIR      44  16  32 N23G30    30.12S
$$

  *****  SOME WEATHER IN NEARBY STATES *****

CITY           SKY/WX    TMP DP  RH WIND       PRES   REMARKS
GLASGOW MT     FAIR      23  16  74 N3        30.10F
GREAT FALLS MT FAIR      39  15  37 SW22G30   30.06F
CHEYENNE WY    FAIR      29  15  56 NW14G25   30.18S WCI  18
SCOTTSBLUFF NE FAIR      34  21  59 NW14G26   30.22S WCI  25
OMAHA NE       CLOUDY    26  21  81 W7        30.19S WCI  18
DES MOINES IA  CLOUDY    27  21  78 NW13      30.15R WCI  16
DAVENPORT IA   CLOUDY    28  22  78 NW17      30.06R WCI  16
CHICAGO IL     CLOUDY    31  24  75 NW9       29.94R WCI  23
EAU CLAIRE WI  CLOUDY    19  14  81 NW10      30.05R WCI   7
LA CROSSE WI   CLOUDY    24  18  77 NW12      30.05R WCI  13
$$

  *****  SOME NATIONAL WEATHER *****

CITY           SKY/WX    TMP DP  RH WIND       PRES   REMARKS
LA GUARDIA NY  MOCLDY    58  48  69 W5        29.52R
RALEIGH NC     FAIR      66  25  21 SW18G30   29.74R
ATLANTA GA     FAIR      56  33  42 W13G23    29.99R
NEW ORLEANS LA PTSUNNY   65  28  24 NW14      30.15S
OKLAHOMA CITY  FAIR      51  13  21 NW8       30.25S
ALBUQUERQUE NM FAIR      42  10  27 W6        30.25F
SALT LAKE CITY FAIR      40  24  53 CALM      30.33F
LOS ANGELES CA FAIR      74  21  13 CALM      30.11F
BOISE ID       FAIR      43  27  53 E15       30.24F
SEATTLE WA     RAIN      42  40  92 W3        29.88F FOG
$$

*** WEATHER ACROSS MANITOBA...SASKATCHEWAN AND ONTARIO ***
                ***ONTARIO***

CITY           SKY/WX    TMP DP  RH WIND       PRES   REMARKS
GERALDTON      SUNNY      5  -9  51 N9        30.04R WCI  -9
THUNDER BAY    MOSUNNY   14  -9  34 N8        30.10R WCI   3
SIOUX LOOKOUT  PTSUNNY    3  -9  55 VRB2      30.12R
TORONTO        DRIZZLE   39  32  75 SW20G29   29.49S
BIG TROUT LK   CLEAR     -4 -11  71 E6        30.29S WCI -16
PICKLE LAKE    MOSUNNY    3 -11  51 E6        30.15R WCI  -8
DRYDEN         CLOUDY     9  -6  52 NE6       30.09R WCI  -1
KENORA         MOSUNNY   14  -2  48 SE2       30.07
$$
                *** MANITOBA***

CITY           SKY/WX    TMP DP  RH WIND       PRES   REMARKS
BRANDON        CLOUDY    21  18  86 W16       30.05R WCI   7
DAUPHIN        CLOUDY    23  19  86 W15G21    30.01S WCI  10
ISLAND LAKE    LGT SNOW   5  -2  72 E12       30.15S WCI -11
PILOT MOUND      N/A     19  19 100 NW12        N/A  WCI   7
THE PAS        LGT SNOW   1  -4  78 N7        30.06R WCI -11
THOMPSON       MOCLDY    -9 -17  70 NE6       30.19  WCI -23
WINNIPEG       FRZ DRZL  19  18  93 S15       30.07R VSB 1   WCI   5
LYNN LAKE      CLEAR    -13 -17  84 E8        30.15S WCI -30
CHURCHILL      MOCLDY   -15 -20  76 SW2       30.45S
GILLAM         PTCLDY   -11 -17  77 E5        30.31S WCI -23
$$
                ***SASKATCHEWAN***

CITY           SKY/WX    TMP DP  RH WIND       PRES   REMARKS
ESTEVAN        CLOUDY    21  19  93 W10       30.07S FOG     WCI  10
KINDERSLEY     MOSUNNY   32  19  59 W6        29.98F
LLOYDMINSTER   MOSUNNY   23  21  93 VRB2      29.97F
PRINCE ALBERT  FLURRIES  16  10  79 N3        30.05S
REGINA         FOG       21  19  93 W6        30.04S VSB 1   WCI  14
YORKTON        CLOUDY    25  21  86 W12G18    29.99F WCI  14
N. BATTLEFORD  FOG       18  16  93 W6        30.03S VSB 1/2 WCI   9
LA RONGE       MOSUNNY    1  -6  71 CALM      30.09S
SASKATOON      LGT SNOW  21  19  93 SW6       30.03F FOG     WCI  14
SWIFT CURRENT  SUNNY     37  21  52 W14       29.99F
$$
NOTE: THESE ARE AUTOMATED STATIONS WITH LIMITED QUALITY CONTROL
      "FAIR" INDICATES FEW OR NO CLOUDS BELOW 12,000 FEET WITH NO
      SIGNIFICANT WEATHER AND/OR OBSTRUCTIONS TO VISIBILITY.
      SKY/WX - SKY CONDITION AND SIGNIFICANT WEATHER.
      TMP - AIR TEMPERATURE.    DP   - DEWPOINT TEMPERATURE.
      RH  - RELATIVE HUMIDITY.  PRES - PRESSURE.
      HX  - HEAT INDEX.         WCI  - WIND CHILL INDEX.
$



USA.gov is the U.S. government's official web portal to all federal, state and local government web resources and services.